Terminal Aerodrome Forecast
Issued by NWS Lake Charles, LA

Home | Current Version | Previous Version | Text Only | Print | Product List | Glossary On
Versions: 1 2 3 4 5 6 7 8 9 10 11 12
000
FTUS44 KLCH 030018 RRA
TAFARA
TAF
KARA 030018Z 0300/0324 06009KT P6SM -RA OVC070
     FM030400 07014G19KT P6SM -RA OVC060
     FM031200 08017G22KT 5SM -RA BR OVC025=

USA.gov is the U.S. government's official web portal to all federal, state and local government web resources and services.